Location: Unspecified
(0.0000°N, 0.0000°E)
Time: 10:47:36
(UTC+00:00)

N. Korean satellite - Pass Details

Date: 24 May 2020
Orbit: 455 x 505 km, 97.2° (Epoch: 30 May)

Event Time Altitude Azimuth Distance (km) Brightness Sun altitude
Rises 04:30:53 0° 41° (NE) 2,588 11.4 -20.0°
Reaches altitude 10° 04:33:40 10° 65° (ENE) 1,705 10.6 -19.4°
Maximum altitude 04:35:51 15° 101° (E) 1,413 9.7 -18.9°
Drops below altitude 10° 04:38:00 10° 137° (SE) 1,701 9.6 -18.4°
Sets 04:40:47 0° 161° (SSE) 2,579 10.2 -17.7°
